TEVEL2-5

Last updated on Sun Jan 18 2026 00:03:08 GMT+0000 (Coordinated Universal Time)

1 63214U 25052E 26017.61527193 .00016794 00000+0 60899-3 0 9991 2 63214 97.4093 274.2116 0001369 333.1555 26.9614 15.28417977 47063
UTC large
Height (km)
Speed (km/s)
/
Latitude / Longitude
Inclination (degrees)
Orbital Period (minutes)
Azimuth
Elevation
Range (km)
Doppler Factor

Next 0 passes for location: London (51.5072 / 0.1276)

Sorry there are no passes over London.